Time,TemperatureF,DewpointF,PressureIn,WindDirection,WindDirectionDegrees,WindSpeedMPH,WindSpeedGustMPH,Humidity,HourlyPrecipIn,Conditions,Clouds,dailyrainin,SoftwareType,DateUTC
2013-04-19 00:00:00,60.2,56.9,29.59,South,181,14.0,16.0,89,0.00,,,0.00,Wunderground v.1.15,2013-04-19 04:00:00,
2013-04-19 00:10:00,60.0,57.1,29.58,South,174,13.0,13.0,90,0.00,,,0.00,Wunderground v.1.15,2013-04-19 04:10:00,
2013-04-19 00:20:00,59.8,56.9,29.58,SSE,161,15.0,15.0,90,0.00,,,0.00,Wunderground v.1.15,2013-04-19 04:20:00,
2013-04-19 00:30:00,59.7,56.8,29.58,SSW,194,16.0,18.0,90,0.00,,,0.00,Wunderground v.1.15,2013-04-19 04:30:00,
2013-04-19 00:40:00,59.8,56.9,29.58,South,180,15.0,15.0,90,0.00,,,0.00,Wunderground v.1.15,2013-04-19 04:40:00,
2013-04-19 00:50:00,59.6,57.0,29.57,SSE,168,13.0,14.0,91,0.00,,,0.00,Wunderground v.1.15,2013-04-19 04:50:00,
2013-04-19 01:00:00,59.5,56.9,29.56,South,169,15.0,16.0,91,0.00,,,0.00,Wunderground v.1.15,2013-04-19 05:00:00,
2013-04-19 01:10:00,59.1,56.8,29.55,South,184,17.0,17.0,92,0.00,,,0.00,Wunderground v.1.15,2013-04-19 05:10:00,
2013-04-19 01:20:00,58.7,57.0,29.55,SSE,166,15.0,15.0,94,0.00,,,0.01,Wunderground v.1.15,2013-04-19 05:20:00,
2013-04-19 01:30:00,58.5,57.1,29.55,SSW,192,15.0,25.0,95,0.05,,,0.02,Wunderground v.1.15,2013-04-19 05:30:00,
2013-04-19 01:39:00,58.3,56.9,29.54,South,171,15.0,15.0,95,0.04,,,0.02,Wunderground v.1.15,2013-04-19 05:39:00,
2013-04-19 01:50:00,58.3,57.2,29.54,South,188,18.0,18.0,96,0.00,,,0.02,Wunderground v.1.15,2013-04-19 05:50:00,
2013-04-19 02:00:00,58.2,57.1,29.55,SSW,203,17.0,25.0,96,0.00,,,0.02,Wunderground v.1.15,2013-04-19 06:00:00,
2013-04-19 02:10:00,58.2,57.1,29.54,South,173,17.0,17.0,96,0.00,,,0.02,Wunderground v.1.15,2013-04-19 06:10:00,
2013-04-19 02:20:00,58.2,56.8,29.54,South,188,20.0,20.0,95,0.00,,,0.02,Wunderground v.1.15,2013-04-19 06:20:00,
2013-04-19 02:30:00,58.2,56.8,29.53,SSW,196,18.0,25.0,95,0.00,,,0.02,Wunderground v.1.15,2013-04-19 06:30:00,
2013-04-19 02:40:00,58.3,56.6,29.53,South,184,19.0,19.0,94,0.00,,,0.02,Wunderground v.1.15,2013-04-19 06:40:00,
2013-04-19 02:50:00,58.2,56.8,29.53,SSE,161,16.0,16.0,95,0.00,,,0.02,Wunderground v.1.15,2013-04-19 06:50:00,
2013-04-19 03:00:00,58.2,56.5,29.52,SSE,155,18.0,25.0,94,0.00,,,0.02,Wunderground v.1.15,2013-04-19 07:00:00,
2013-04-19 03:10:00,58.2,56.8,29.51,South,178,15.0,15.0,95,0.00,,,0.02,Wunderground v.1.15,2013-04-19 07:10:00,
2013-04-19 03:20:00,58.0,56.6,29.52,South,186,16.0,25.0,95,0.00,,,0.02,Wunderground v.1.15,2013-04-19 07:20:00,
2013-04-19 03:30:00,58.0,56.3,29.51,South,169,15.0,15.0,94,0.00,,,0.02,Wunderground v.1.15,2013-04-19 07:30:00,
2013-04-19 03:40:00,57.9,56.5,29.50,SSW,203,13.0,25.0,95,0.00,,,0.02,Wunderground v.1.15,2013-04-19 07:40:00,
2013-04-19 03:50:00,57.8,56.4,29.50,South,186,15.0,25.0,95,0.00,,,0.02,Wunderground v.1.15,2013-04-19 07:50:00,
2013-04-19 04:00:00,57.7,56.3,29.50,South,188,15.0,15.0,95,0.00,,,0.02,Wunderground v.1.15,2013-04-19 08:00:00,
2013-04-19 04:09:00,57.7,56.3,29.50,South,189,13.0,13.0,95,0.00,,,0.02,Wunderground v.1.15,2013-04-19 08:09:00,
2013-04-19 04:20:00,57.8,56.7,29.50,South,184,12.0,12.0,96,0.00,,,0.02,Wunderground v.1.15,2013-04-19 08:20:00,
2013-04-19 04:30:00,57.8,56.7,29.49,South,186,14.0,14.0,96,0.00,,,0.02,Wunderground v.1.15,2013-04-19 08:30:00,
2013-04-19 04:40:00,57.8,56.7,29.49,South,178,12.0,25.0,96,0.00,,,0.02,Wunderground v.1.15,2013-04-19 08:40:00,
2013-04-19 04:50:00,57.8,56.7,29.48,SSW,197,13.0,13.0,96,0.00,,,0.02,Wunderground v.1.15,2013-04-19 08:50:00,
2013-04-19 05:00:00,57.7,56.6,29.48,SSW,194,10.0,10.0,96,0.00,,,0.02,Wunderground v.1.15,2013-04-19 09:00:00,
2013-04-19 05:10:00,57.7,56.6,29.48,South,181,12.0,12.0,96,0.00,,,0.02,Wunderground v.1.15,2013-04-19 09:10:00,
2013-04-19 05:20:00,57.7,56.6,29.47,SSE,163,12.0,25.0,96,0.00,,,0.03,Wunderground v.1.15,2013-04-19 09:20:00,
2013-04-19 05:30:00,57.8,56.7,29.47,South,184,14.0,14.0,96,0.00,,,0.03,Wunderground v.1.15,2013-04-19 09:30:00,
2013-04-19 05:40:00,57.8,56.7,29.47,South,181,11.0,11.0,96,0.00,,,0.03,Wunderground v.1.15,2013-04-19 09:40:00,
2013-04-19 05:50:00,57.7,56.9,29.47,South,186,10.0,25.0,97,0.00,,,0.03,Wunderground v.1.15,2013-04-19 09:50:00,
2013-04-19 05:59:00,57.7,56.9,29.47,SSE,155,11.0,11.0,97,0.00,,,0.03,Wunderground v.1.15,2013-04-19 09:59:00,
2013-04-19 06:10:00,57.7,56.9,29.46,South,173,9.0,25.0,97,0.00,,,0.04,Wunderground v.1.15,2013-04-19 10:10:00,
2013-04-19 06:19:00,57.8,57.0,29.46,South,178,12.0,25.0,97,0.00,,,0.04,Wunderground v.1.15,2013-04-19 10:19:00,
2013-04-19 06:30:00,57.8,57.0,29.46,SSW,211,12.0,25.0,97,0.00,,,0.04,Wunderground v.1.15,2013-04-19 10:30:00,
2013-04-19 06:40:00,57.9,57.1,29.45,SSW,196,13.0,13.0,97,0.00,,,0.04,Wunderground v.1.15,2013-04-19 10:40:00,
2013-04-19 06:50:00,57.9,57.1,29.45,SSW,193,14.0,25.0,97,0.00,,,0.04,Wunderground v.1.15,2013-04-19 10:50:00,
2013-04-19 07:00:00,58.0,57.2,29.46,South,173,14.0,14.0,97,0.00,,,0.04,Wunderground v.1.15,2013-04-19 11:00:00,
2013-04-19 07:10:00,58.1,57.3,29.46,SSW,213,16.0,16.0,97,0.00,,,0.04,Wunderground v.1.15,2013-04-19 11:10:00,
2013-04-19 07:20:00,58.1,57.5,29.46,South,181,15.0,25.0,98,0.00,,,0.04,Wunderground v.1.15,2013-04-19 11:20:00,
2013-04-19 07:30:00,58.1,57.5,29.46,SSW,205,15.0,25.0,98,0.00,,,0.04,Wunderground v.1.15,2013-04-19 11:30:00,
2013-04-19 07:40:00,58.2,57.6,29.46,SSW,193,15.0,25.0,98,0.00,,,0.04,Wunderground v.1.15,2013-04-19 11:40:00,
2013-04-19 07:50:00,58.2,57.6,29.47,SSW,198,15.0,15.0,98,0.00,,,0.04,Wunderground v.1.15,2013-04-19 11:50:00,
2013-04-19 08:00:00,58.2,57.6,29.47,South,188,14.0,14.0,98,0.00,,,0.04,Wunderground v.1.15,2013-04-19 12:00:00,
2013-04-19 08:10:00,58.3,57.7,29.47,SW,214,14.0,15.0,98,0.00,,,0.04,Wunderground v.1.15,2013-04-19 12:10:00,
2013-04-19 08:20:00,58.5,57.9,29.47,SSW,198,20.0,20.0,98,0.00,,,0.04,Wunderground v.1.15,2013-04-19 12:20:00,
2013-04-19 08:30:00,58.6,58.0,29.46,South,172,15.0,16.0,98,0.00,,,0.04,Wunderground v.1.15,2013-04-19 12:30:00,
2013-04-19 08:40:00,58.7,58.1,29.47,South,183,15.0,15.0,98,0.00,,,0.04,Wunderground v.1.15,2013-04-19 12:40:00,
2013-04-19 08:50:00,58.9,58.3,29.47,South,177,16.0,16.0,98,0.00,,,0.04,Wunderground v.1.15,2013-04-19 12:50:00,
2013-04-19 09:00:00,59.1,58.5,29.46,South,179,20.0,20.0,98,0.00,,,0.04,Wunderground v.1.15,2013-04-19 13:00:00,
2013-04-19 09:10:00,59.2,58.3,29.46,South,180,18.0,31.0,97,0.00,,,0.04,Wunderground v.1.15,2013-04-19 13:10:00,
2013-04-19 09:20:00,59.5,58.6,29.45,South,178,21.0,31.0,97,0.00,,,0.04,Wunderground v.1.15,2013-04-19 13:20:00,
2013-04-19 09:30:00,59.7,58.8,29.45,South,182,22.0,22.0,97,0.00,,,0.04,Wunderground v.1.15,2013-04-19 13:30:00,
2013-04-19 09:40:00,59.6,58.5,29.45,South,189,19.0,19.0,96,0.00,,,0.04,Wunderground v.1.15,2013-04-19 13:40:00,
2013-04-19 09:50:00,59.9,58.8,29.45,SSW,208,19.0,31.0,96,0.00,,,0.04,Wunderground v.1.15,2013-04-19 13:50:00,
2013-04-19 10:00:00,60.1,59.0,29.45,SSW,207,19.0,31.0,96,0.00,,,0.04,Wunderground v.1.15,2013-04-19 14:00:00,
2013-04-19 10:10:00,60.0,58.9,29.45,SSW,199,19.0,19.0,96,0.09,,,0.06,Wunderground v.1.15,2013-04-19 14:10:00,
2013-04-19 10:20:00,60.0,58.9,29.44,South,189,21.0,21.0,96,0.04,,,0.06,Wunderground v.1.15,2013-04-19 14:20:00,
2013-04-19 10:30:00,59.9,58.8,29.44,South,190,19.0,19.0,96,0.04,,,0.07,Wunderground v.1.15,2013-04-19 14:30:00,
2013-04-19 10:39:00,60.0,58.9,29.44,SSW,200,21.0,31.0,96,0.05,,,0.08,Wunderground v.1.15,2013-04-19 14:39:00,
2013-04-19 10:49:00,60.0,58.9,29.44,SSW,203,19.0,31.0,96,0.17,,,0.10,Wunderground v.1.15,2013-04-19 14:49:00,
2013-04-19 11:00:00,60.0,58.9,29.43,South,175,19.0,19.0,96,0.08,,,0.12,Wunderground v.1.15,2013-04-19 15:00:00,
2013-04-19 11:10:00,60.1,59.0,29.44,SSW,205,21.0,21.0,96,0.00,,,0.12,Wunderground v.1.15,2013-04-19 15:10:00,
2013-04-19 11:20:00,60.2,59.1,29.43,SSW,204,20.0,31.0,96,0.00,,,0.13,Wunderground v.1.15,2013-04-19 15:20:00,
2013-04-19 11:30:00,60.4,59.3,29.43,SSW,210,18.0,18.0,96,0.00,,,0.14,Wunderground v.1.15,2013-04-19 15:30:00,
2013-04-19 11:40:00,60.5,59.4,29.42,SSW,202,15.0,15.0,96,0.18,,,0.20,Wunderground v.1.15,2013-04-19 15:40:00,
2013-04-19 11:50:00,60.7,59.6,29.42,SSW,198,14.0,31.0,96,0.05,,,0.20,Wunderground v.1.15,2013-04-19 15:50:00,
2013-04-19 12:00:00,60.6,59.5,29.41,SSW,209,18.0,18.0,96,0.00,,,0.20,Wunderground v.1.15,2013-04-19 16:00:00,
2013-04-19 12:10:00,60.5,59.4,29.39,South,182,19.0,19.0,96,0.00,,,0.20,Wunderground v.1.15,2013-04-19 16:10:00,
2013-04-19 12:20:00,60.7,59.6,29.39,SSW,208,19.0,20.0,96,0.00,,,0.20,Wunderground v.1.15,2013-04-19 16:20:00,
2013-04-19 12:30:00,60.8,59.7,29.39,South,176,22.0,25.0,96,0.00,,,0.20,Wunderground v.1.15,2013-04-19 16:30:00,
2013-04-19 12:40:00,60.8,59.7,29.38,South,188,20.0,21.0,96,0.00,,,0.21,Wunderground v.1.15,2013-04-19 16:40:00,
2013-04-19 12:50:00,60.7,59.6,29.38,South,184,21.0,23.0,96,0.00,,,0.21,Wunderground v.1.15,2013-04-19 16:50:00,
2013-04-19 13:00:00,60.8,59.7,29.37,South,183,21.0,23.0,96,0.00,,,0.21,Wunderground v.1.15,2013-04-19 17:00:00,
2013-04-19 13:09:00,60.9,59.8,29.37,SSW,206,21.0,21.0,96,0.00,,,0.22,Wunderground v.1.15,2013-04-19 17:09:00,
2013-04-19 13:20:00,60.9,59.8,29.37,South,179,17.0,32.0,96,0.13,,,0.24,Wunderground v.1.15,2013-04-19 17:20:00,
2013-04-19 13:30:00,60.9,59.8,29.36,SSW,213,16.0,32.0,96,0.14,,,0.27,Wunderground v.1.15,2013-04-19 17:30:00,
2013-04-19 13:39:00,61.0,59.9,29.35,South,190,17.0,17.0,96,0.82,,,0.38,Wunderground v.1.15,2013-04-19 17:39:00,
2013-04-19 13:50:00,60.9,60.0,29.35,South,176,15.0,32.0,97,0.33,,,0.50,Wunderground v.1.15,2013-04-19 17:50:00,
2013-04-19 14:00:00,61.1,60.2,29.35,SSW,196,20.0,20.0,97,0.32,,,0.54,Wunderground v.1.15,2013-04-19 18:00:00,
2013-04-19 14:09:00,61.3,60.4,29.36,SW,219,19.0,19.0,97,0.36,,,0.58,Wunderground v.1.15,2013-04-19 18:09:00,
2013-04-19 14:20:00,61.3,60.4,29.35,SSW,208,19.0,19.0,97,0.13,,,0.61,Wunderground v.1.15,2013-04-19 18:20:00,
2013-04-19 14:30:00,61.6,60.4,29.35,SSW,202,22.0,32.0,96,0.14,,,0.63,Wunderground v.1.15,2013-04-19 18:30:00,
2013-04-19 14:40:00,61.8,60.6,29.35,SW,216,25.0,25.0,96,0.28,,,0.67,Wunderground v.1.15,2013-04-19 18:40:00,
2013-04-19 14:50:00,61.7,60.5,29.36,SSW,211,24.0,24.0,96,0.52,,,0.74,Wunderground v.1.15,2013-04-19 18:50:00,
2013-04-19 15:00:00,61.0,59.6,29.36,SW,223,29.0,32.0,95,0.38,,,0.89,Wunderground v.1.15,2013-04-19 19:00:00,
2013-04-19 15:10:00,60.9,59.5,29.35,SSW,197,29.0,32.0,95,0.22,,,0.97,Wunderground v.1.15,2013-04-19 19:10:00,
2013-04-19 15:20:00,61.0,59.9,29.35,SW,220,28.0,32.0,96,0.22,,,1.00,Wunderground v.1.15,2013-04-19 19:20:00,
2013-04-19 15:30:00,61.1,60.0,29.36,WSW,258,28.0,28.0,96,0.43,,,1.04,Wunderground v.1.15,2013-04-19 19:30:00,
2013-04-19 15:40:00,61.1,60.0,29.36,SSW,211,22.0,22.0,96,0.05,,,1.04,Wunderground v.1.15,2013-04-19 19:40:00,
2013-04-19 15:50:00,61.0,59.6,29.35,SSW,200,26.0,26.0,95,0.09,,,1.06,Wunderground v.1.15,2013-04-19 19:50:00,
2013-04-19 15:59:00,60.9,59.5,29.35,SSW,203,25.0,25.0,95,0.15,,,1.08,Wunderground v.1.15,2013-04-19 19:59:00,
2013-04-19 16:10:00,60.9,59.2,29.35,SW,232,25.0,29.0,94,0.11,,,1.09,Wunderground v.1.15,2013-04-19 20:10:00,
2013-04-19 16:20:00,60.9,59.5,29.35,SSW,211,27.0,35.0,95,0.16,,,1.12,Wunderground v.1.15,2013-04-19 20:20:00,
2013-04-19 16:30:00,60.9,59.5,29.35,SSW,192,24.0,27.0,95,0.15,,,1.15,Wunderground v.1.15,2013-04-19 20:30:00,
2013-04-19 16:40:00,61.1,59.4,29.34,SW,215,26.0,26.0,94,0.09,,,1.16,Wunderground v.1.15,2013-04-19 20:40:00,
2013-04-19 16:50:00,60.9,59.2,29.34,SSW,211,23.0,26.0,94,0.06,,,1.17,Wunderground v.1.15,2013-04-19 20:50:00,
2013-04-19 17:00:00,60.5,58.8,29.34,SW,215,25.0,25.0,94,0.07,,,1.18,Wunderground v.1.15,2013-04-19 21:00:00,
2013-04-19 17:10:00,60.1,58.7,29.33,SW,215,19.0,44.0,95,0.09,,,1.20,Wunderground v.1.15,2013-04-19 21:10:00,
2013-04-19 17:20:00,60.0,58.6,29.34,SSW,208,20.0,20.0,95,0.08,,,1.21,Wunderground v.1.15,2013-04-19 21:20:00,
2013-04-19 17:30:00,60.2,58.8,29.33,SSW,213,21.0,44.0,95,0.05,,,1.22,Wunderground v.1.15,2013-04-19 21:30:00,
2013-04-19 17:40:00,60.3,58.9,29.33,SW,217,26.0,44.0,95,0.05,,,1.23,Wunderground v.1.15,2013-04-19 21:40:00,
2013-04-19 17:50:00,60.1,58.7,29.32,SSW,207,24.0,44.0,95,0.07,,,1.24,Wunderground v.1.15,2013-04-19 21:50:00,
2013-04-19 18:00:00,59.9,58.8,29.33,SSW,208,20.0,44.0,96,0.04,,,1.25,Wunderground v.1.15,2013-04-19 22:00:00,
2013-04-19 18:10:00,59.7,58.6,29.34,SW,227,18.0,44.0,96,0.04,,,1.25,Wunderground v.1.15,2013-04-19 22:10:00,
2013-04-19 18:20:00,59.7,58.6,29.34,SW,223,17.0,17.0,96,0.00,,,1.25,Wunderground v.1.15,2013-04-19 22:20:00,
2013-04-19 18:30:00,59.9,58.5,29.34,SW,225,14.0,14.0,95,0.00,,,1.25,Wunderground v.1.15,2013-04-19 22:30:00,
2013-04-19 18:40:00,58.5,56.5,29.34,WNW,282,8.0,44.0,93,0.00,,,1.25,Wunderground v.1.15,2013-04-19 22:40:00,
2013-04-19 18:50:00,55.0,52.4,29.34,NNW,327,9.0,44.0,91,0.00,,,1.25,Wunderground v.1.15,2013-04-19 22:50:00,
2013-04-19 18:59:00,52.9,50.6,29.35,West,268,9.0,44.0,92,0.00,,,1.25,Wunderground v.1.15,2013-04-19 22:59:00,
2013-04-19 19:10:00,51.7,49.2,29.36,WNW,284,10.0,44.0,91,0.00,,,1.25,Wunderground v.1.15,2013-04-19 23:10:00,
2013-04-19 19:20:00,51.0,48.5,29.35,NNW,330,9.0,44.0,91,0.00,,,1.25,Wunderground v.1.15,2013-04-19 23:20:00,
2013-04-19 19:30:00,50.6,48.4,29.35,NW,317,8.0,44.0,92,0.00,,,1.25,Wunderground v.1.15,2013-04-19 23:30:00,
2013-04-19 19:40:00,50.2,47.7,29.37,WNW,288,8.0,44.0,91,0.00,,,1.25,Wunderground v.1.15,2013-04-19 23:40:00,
2013-04-19 19:50:00,49.8,47.0,29.36,WNW,288,9.0,9.0,90,0.00,,,1.25,Wunderground v.1.15,2013-04-19 23:50:00,
2013-04-19 20:00:00,49.1,46.0,29.38,WNW,290,10.0,10.0,89,0.00,,,1.25,Wunderground v.1.15,2013-04-20 00:00:00,
2013-04-19 20:10:00,48.5,45.4,29.39,NW,314,10.0,14.0,89,0.00,,,1.25,Wunderground v.1.15,2013-04-20 00:10:00,
2013-04-19 20:20:00,48.1,45.0,29.40,WNW,295,12.0,12.0,89,0.00,,,1.25,Wunderground v.1.15,2013-04-20 00:20:00,
2013-04-19 20:30:00,47.7,44.3,29.40,NW,321,10.0,11.0,88,0.00,,,1.25,Wunderground v.1.15,2013-04-20 00:30:00,
2013-04-19 20:40:00,47.3,43.9,29.41,West,269,10.0,10.0,88,0.00,,,1.25,Wunderground v.1.15,2013-04-20 00:40:00,
2013-04-19 20:50:00,47.1,43.4,29.42,West,281,7.0,10.0,87,0.00,,,1.25,Wunderground v.1.15,2013-04-20 00:50:00,
2013-04-19 21:00:00,46.9,42.6,29.43,WNW,284,8.0,8.0,85,0.00,,,1.25,Wunderground v.1.15,2013-04-20 01:00:00,
2013-04-19 21:10:00,46.8,41.3,29.43,West,275,11.0,21.0,81,0.00,,,1.25,Wunderground v.1.15,2013-04-20 01:10:00,
2013-04-19 21:20:00,46.5,40.7,29.43,West,271,10.0,21.0,80,0.00,,,1.25,Wunderground v.1.15,2013-04-20 01:20:00,
2013-04-19 21:30:00,46.3,40.5,29.43,West,277,11.0,11.0,80,0.00,,,1.25,Wunderground v.1.15,2013-04-20 01:30:00,
2013-04-19 21:40:00,45.9,40.7,29.44,WNW,299,8.0,21.0,82,0.00,,,1.25,Wunderground v.1.15,2013-04-20 01:40:00,
2013-04-19 21:50:00,45.6,40.7,29.44,NW,313,8.0,21.0,83,0.00,,,1.25,Wunderground v.1.15,2013-04-20 01:50:00,
2013-04-19 22:00:00,45.5,40.6,29.45,WNW,285,10.0,21.0,83,0.00,,,1.25,Wunderground v.1.15,2013-04-20 02:00:00,
2013-04-19 22:10:00,45.5,40.9,29.46,WNW,291,12.0,21.0,84,0.00,,,1.25,Wunderground v.1.15,2013-04-20 02:10:00,
2013-04-19 22:20:00,45.4,40.8,29.46,WNW,288,11.0,21.0,84,0.00,,,1.25,Wunderground v.1.15,2013-04-20 02:20:00,
2013-04-19 22:30:00,45.3,40.7,29.46,WNW,288,13.0,13.0,84,0.00,,,1.25,Wunderground v.1.15,2013-04-20 02:30:00,
2013-04-19 22:40:00,45.1,40.9,29.47,WNW,290,11.0,19.0,85,0.00,,,1.25,Wunderground v.1.15,2013-04-20 02:40:00,
2013-04-19 22:50:00,45.1,41.2,29.47,West,271,10.0,14.0,86,0.00,,,1.25,Wunderground v.1.15,2013-04-20 02:50:00,
2013-04-19 23:00:00,45.1,40.9,29.48,WNW,290,10.0,10.0,85,0.00,,,1.25,Wunderground v.1.15,2013-04-20 03:00:00,
2013-04-19 23:10:00,44.7,40.5,29.48,WNW,300,10.0,10.0,85,0.00,,,1.25,Wunderground v.1.15,2013-04-20 03:10:00,
2013-04-19 23:19:00,44.3,39.5,29.47,WNW,288,12.0,12.0,83,0.00,,,1.25,Wunderground v.1.15,2013-04-20 03:19:00,
2013-04-19 23:30:00,43.8,38.3,29.48,NW,321,13.0,16.0,81,0.00,,,1.25,Wunderground v.1.15,2013-04-20 03:30:00,
2013-04-19 23:40:00,43.2,37.4,29.47,NNW,329,13.0,21.0,80,0.00,,,1.25,Wunderground v.1.15,2013-04-20 03:40:00,
2013-04-19 23:49:00,42.8,36.1,29.48,WNW,295,17.0,17.0,77,0.00,,,1.25,Wunderground v.1.15,2013-04-20 03:49:00,